This demonstration page uses our WeatherBlox Daily Observations layout. Learn more.

40.92945, -100.16068

Hourly Observations for August 23, 2019

Temp ( °F °C ) Dew Point ( °F °C ) Humidity (%) Winds ( mph kmh ) Pressure ( in mb ) Visibility ( mi km ) Precip ( " mm )
12:15 am 00:15 Clear 67 19.6 67 19.3 98 98 ESE 12 19 29.94 1014 10 16.09344 0 0
12:35 am 00:35 Partly Cloudy 67 19.6 66 19.1 97 97 ESE 10 17 29.97 1015 10 16.09344 0 0
12:55 am 00:55 Cloudy 68 20 67 19.5 97 97 ESE 13 20 29.97 1015 10 16.09344 0 0
1:15 am 01:15 Cloudy 68 20 68 19.8 99 99 SE 12 19 29.91 1013 7 11.265408 0 0
1:35 am 01:35 Cloudy with Mist and Fog 68 19.9 67 19.7 99 99 SE 14 22 29.91 1013 5 8.04672 0 0
1:55 am 01:55 Cloudy 68 20.1 68 19.8 98 98 ESE 15 24 29.91 1013 7 11.265408 0 0
2:15 am 02:15 Cloudy 68 20.1 67 19.7 98 98 SE 9 15 29.91 1013 7 11.265408 0 0
2:35 am 02:35 Cloudy 68 20.1 68 19.8 98 98 SE 10 17 29.91 1013 7 11.265408 0 0
2:55 am 02:55 Cloudy 68 20.1 68 19.8 98 98 SE 13 20 29.91 1013 7 11.265408 0 0
3:15 am 03:15 Cloudy 68 20.2 68 19.8 98 98 SE 12 19 29.91 1013 7 11.265408 0 0
3:35 am 03:35 Cloudy 68 20.2 68 19.8 98 98 ESE 12 19 29.91 1013 10 16.09344 0 0
3:55 am 03:55 Cloudy 68 20 67 19.6 98 98 SSE 10 17 29.97 1015 7 11.265408 0 0
4:15 am 04:15 Cloudy 68 20.1 67 19.7 98 98 SSE 10 17 29.97 1015 10 16.09344 0 0
4:35 am 04:35 Cloudy 68 19.9 67 19.5 98 98 S 10 17 29.97 1015 10 16.09344 0 0
4:55 am 04:55 Partly Cloudy 67 19.6 67 19.3 98 98 SSE 10 17 29.97 1015 10 16.09344 0 0
5:15 am 05:15 Partly Cloudy 67 19.5 66 19.1 98 98 S 9 15 29.97 1015 10 16.09344 0 0
5:35 am 05:35 Mostly Cloudy 67 19.2 66 19 99 99 SSE 8 13 29.97 1015 10 16.09344 0 0
5:55 am 05:55 Cloudy 67 19.5 66 19 97 97 SSE 8 13 29.97 1015 10 16.09344 0 0
6:15 am 06:15 Cloudy 67 19.2 66 19 99 99 SE 8 13 29.97 1015 10 16.09344 0 0
6:35 am 06:35 Cloudy 66 19.1 66 18.9 99 99 SE 9 15 29.97 1015 10 16.09344 0 0
6:55 am 06:55 Cloudy 67 19.3 66 19 98 98 SE 12 19 29.97 1015 7 11.265408 0 0
7:15 am 07:15 Mostly Cloudy 67 19.5 66 19.1 98 98 SE 10 17 29.97 1015 7 11.265408 0 0
7:35 am 07:35 Mostly Cloudy 67 19.6 66 19.1 97 97 SE 9 15 29.97 1015 10 16.09344 0 0
7:55 am 07:55 Mostly Cloudy 67 19.5 66 19 97 97 SE 12 19 29.97 1015 7 11.265408 0 0
8:15 am 08:15 Mostly Cloudy 67 19.5 66 19.1 98 98 ESE 8 13 29.94 1014 10 16.09344 0 0
8:35 am 08:35 Cloudy 67 19.7 66 19 96 96 SE 12 19 29.97 1015 10 16.09344 0 0
8:55 am 08:55 Cloudy 68 20.1 66 19 93 93 SE 10 17 29.97 1015 10 16.09344 0 0
9:15 am 09:15 Mostly Cloudy 69 20.6 66 19.1 91 91 SSE 8 13 29.94 1014 10 16.09344 0 0
9:35 am 09:35 Mostly Cloudy 69 20.8 66 19.1 90 90 SE 9 15 29.94 1014 10 16.09344 0 0
9:55 am 09:55 Cloudy 70 21.1 67 19.2 89 89 SE 14 22 29.94 1014 10 16.09344 0 0
10:15 am 10:15 Cloudy 71 21.5 67 19.4 88 88 SSE 15 24 29.94 1014 10 16.09344 0 0
10:35 am 10:35 Cloudy 72 22 67 19.3 85 85 SE 16 26 29.94 1014 10 16.09344 0 0
10:55 am 10:55 Cloudy 72 22.1 67 19.2 84 84 SSE 12 19 29.94 1014 10 16.09344 0 0
11:15 am 11:15 Cloudy 73 22.5 67 19.2 82 82 SE 14 22 29.94 1014 10 16.09344 0 0
11:35 am 11:35 Cloudy 74 23.1 67 19.7 81 81 SE 13 20 29.94 1014 10 16.09344 0 0
11:55 am 11:55 Mostly Cloudy 75 23.9 68 20.2 80 80 SSE 10 17 29.91 1013 10 16.09344 0 0
12:15 pm 12:15 Cloudy 73 22.9 67 19.6 82 82 SSE 12 19 29.94 1014 10 16.09344 0 0
12:35 pm 12:35 Cloudy 73 23 68 19.8 82 82 SSE 14 22 29.94 1014 10 16.09344 0 0
12:55 pm 12:55 Cloudy 73 22.9 68 19.8 83 83 SSE 12 19 29.94 1014 10 16.09344 0 0
1:15 pm 13:15 Cloudy 74 23.2 68 19.9 82 82 SSE 14 22 29.94 1014 10 16.09344 0 0
1:35 pm 13:35 Cloudy 75 23.9 69 20.3 80 80 SSE 13 20 29.91 1013 10 16.09344 0 0
1:55 pm 13:55 Cloudy 76 24.6 69 20.4 78 78 SE 18 30 29.91 1013 10 16.09344 0 0
2:15 pm 14:15 Mostly Cloudy 77 25.2 69 20.4 75 75 SSE 18 30 29.91 1013 10 16.09344 0 0
2:35 pm 14:35 Mostly Cloudy 77 25.2 68 20.1 73 73 SE 14 22 29.91 1013 10 16.09344 0 0
2:55 pm 14:55 Cloudy 76 24.6 67 19.7 74 74 SSE 18 30 29.91 1013 10 16.09344 0 0
3:15 pm 15:15 Mostly Cloudy 76 24.3 68 19.9 77 77 SSE 14 22 29.91 1013 10 16.09344 0 0
3:35 pm 15:35 Mostly Cloudy 78 25.5 68 19.8 71 71 SSE 18 30 29.91 1013 10 16.09344 0 0
3:55 pm 15:55 Mostly Cloudy 76 24.7 66 19.1 71 71 SSE 17 28 29.91 1013 10 16.09344 0 0
4:15 pm 16:15 Cloudy 78 25.4 67 19.6 70 70 SE 15 24 29.91 1013 10 16.09344 0 0
4:35 pm 16:35 Cloudy 78 25.3 67 19.2 69 69 SSE 15 24 29.91 1013 10 16.09344 0 0
4:55 pm 16:55 Mostly Cloudy 77 25.1 67 19.6 72 72 ESE 15 24 29.91 1013 10 16.09344 0 0
5:15 pm 17:15 Mostly Cloudy 76 24.7 68 20.1 76 76 SE 15 24 29.91 1013 10 16.09344 0 0
5:35 pm 17:35 Partly Cloudy 76 24.5 68 20.2 77 77 SE 14 22 29.91 1013 10 16.09344 0 0
5:55 pm 17:55 Partly Cloudy 75 24.1 67 19.5 76 76 SE 15 24 29.91 1013 10 16.09344 0 0
6:15 pm 18:15 Partly Cloudy 76 24.6 67 19.6 74 74 SE 12 19 29.91 1013 10 16.09344 0 0
6:35 pm 18:35 Partly Cloudy 76 24.3 68 19.8 76 76 SE 15 24 29.91 1013 10 16.09344 0 0
6:55 pm 18:55 Partly Cloudy 74 23.1 67 19.4 80 80 SSE 12 19 29.94 1014 10 16.09344 0 0
7:15 pm 19:15 Partly Cloudy 74 23.4 67 19.7 80 80 ESE 13 20 29.94 1014 10 16.09344 0 0
7:35 pm 19:35 Partly Cloudy 73 23 67 19.6 81 81 ESE 10 17 29.94 1014 10 16.09344 0 0
7:55 pm 19:55 Sunny 73 22.7 67 19.5 82 82 ESE 10 17 29.91 1013 10 16.09344 0 0
8:15 pm 20:15 Sunny 72 22.2 67 19.5 85 85 ESE 12 19 29.91 1013 10 16.09344 0 0
8:35 pm 20:35 Clear 71 21.8 67 19.6 87 87 ESE 12 19 29.91 1013 10 16.09344 0 0
8:55 pm 20:55 Mostly Cloudy 71 21.7 68 19.9 90 90 ESE 14 22 29.94 1014 10 16.09344 0 0
9:15 pm 21:15 Mostly Cloudy 71 21.5 68 20 91 91 ESE 13 20 29.94 1014 10 16.09344 0 0
9:35 pm 21:35 Partly Cloudy 70 21 67 19.5 91 91 ESE 16 26 29.94 1014 10 16.09344 0 0
9:55 pm 21:55 Clear 69 20.7 67 19.5 93 93 SE 13 20 29.94 1014 10 16.09344 0 0
10:15 pm 22:15 Mostly Cloudy 69 20.5 67 19.6 95 95 ESE 10 17 29.94 1014 10 16.09344 0 0
10:35 pm 22:35 Cloudy 69 20.7 67 19.7 94 94 SE 13 20 29.94 1014 10 16.09344 0 0
10:55 pm 22:55 Cloudy 69 20.7 68 19.8 95 95 ESE 12 19 29.94 1014 10 16.09344 0 0
11:15 pm 23:15 Cloudy 69 20.7 67 19.7 94 94 SE 14 22 29.94 1014 10 16.09344 0 0
11:35 pm 23:35 Cloudy 69 20.7 67 19.7 94 94 SE 14 22 29.94 1014 10 16.09344 0 0
11:55 pm 23:55 Cloudy 69 20.6 67 19.6 94 94 SE 13 20 29.94 1014 10 16.09344 0 0

Powered by AerisWeather